Weather History for 94368 - May, 2013

Change the Weather History Date:

Tuesday, May 14, 2013

  Actual Average Record
Temperature  
Mean Temperature 73 °F -  
Max Temperature 77 °F - - ()
Min Temperature 69 °F - - ()
Cooling Degree Days 8    
Growing Degree Days 23 (Base 50)    
Moisture  
Dew Point 70 °F    
Average Humidity 89    
Maximum Humidity 100    
Minimum Humidity 76    
Precipitation  
Precipitation 0.00 in - - ()
Sea Level Pressure  
Sea Level Pressure 29.92 in    
Wind  
Wind Speed 4 mph ()    
Max Wind Speed 10 mph    
Max Gust Speed -    
T = Trace of Precipitation, MM = Missing Value Source: Averaged Metar Reports

Daily Weather History Graph

Daily Weather History Graph

Search for Another Location

Airport or City:

Trip Planner

Search our weather history database for the weather conditions in past years. The results will help you decide how hot, cold, wet, or windy it might be!

Date:

Astronomy

May. 14, 2013 Rise Set
Actual Time 6:25 AM AEST 5:35 PM AEST
Civil Twilight 6:02 AM AEST 5:58 PM AEST
Nautical Twilight 5:35 AM AEST 6:25 PM AEST
Astronomical Twilight 5:08 AM AEST 6:51 PM AEST
Moon 9:35 AM AEST (5/14) 8:57 PM AEST (5/14)
Length of Visible Light 11h 56m
Length of Day
11h 10m
Waxing Crescent, 14% of the Moon is Illuminated
May 14
Waxing Crescent
May 18
First Quarter
May 25
Full
Jun 1
Last Quarter
Jun 9
New

Hourly Weather History & Observations

Time (AEST) Temp. Dew Point Humidity Pressure Visibility Wind Dir Wind Speed Gust Speed Precip Events Conditions
12:00 AM 70 °F 68 °F 92% 29.96 in - Calm Calm - -  
12:00 AM 69.8 °F 68.0 °F 94% 29.95 in - Calm Calm - N/A   Unknown
12:30 AM 71.6 °F 68.0 °F 88% 29.95 in - ENE 3.5 mph - N/A   Unknown
1:00 AM 71.6 °F 69.8 °F 94% 29.95 in - Calm Calm - N/A   Unknown
1:30 AM 71.6 °F 69.8 °F 94% 29.95 in - SW 4.6 mph - N/A   Unknown
2:00 AM 69.8 °F 69.8 °F 100% 29.92 in - WSW 5.8 mph - N/A   Unknown
2:30 AM 69.8 °F 69.8 °F 100% 29.92 in - WSW 1.2 mph - N/A   Unknown
3:00 AM 70 °F 70 °F 98% 29.92 in - West 3.5 mph - -  
3:00 AM 69.8 °F 69.8 °F 100% 29.92 in - West 3.5 mph - N/A   Unknown
3:30 AM 69.8 °F 69.8 °F 100% 29.92 in - Calm Calm - N/A   Unknown
4:00 AM 69.8 °F 69.8 °F 100% 29.92 in - Calm Calm - N/A   Unknown
4:30 AM 69.8 °F 69.8 °F 100% 29.92 in - South 4.6 mph - N/A   Unknown
5:00 AM 69.8 °F 69.8 °F 100% 29.92 in - South 3.5 mph - N/A   Unknown
5:30 AM 69.8 °F 69.8 °F 100% 29.92 in - SSW 6.9 mph - N/A   Unknown
6:30 AM 69.8 °F 69.8 °F 100% 29.92 in - Calm Calm - N/A   Unknown
7:00 AM 69.8 °F 69.8 °F 100% 29.95 in - Calm Calm - N/A   Unknown
7:30 AM 71.6 °F 69.8 °F 94% 29.95 in - South 5.8 mph - N/A   Unknown
8:00 AM 71.6 °F 69.8 °F 94% 29.95 in - SSW 6.9 mph - N/A   Unknown
8:30 AM 73.4 °F 71.6 °F 94% 29.95 in - South 5.8 mph - N/A   Unknown
9:00 AM 73.4 °F 69.8 °F 88% 29.95 in - SE 6.9 mph - N/A   Unknown
10:00 AM 77.0 °F 71.6 °F 83% 29.98 in - SE 6.9 mph - N/A   Unknown
10:30 AM 75.2 °F 69.8 °F 83% 29.95 in - SSE 5.8 mph - N/A   Unknown
11:00 AM 75.2 °F 69.8 °F 83% 29.95 in - SSE 8.1 mph - N/A   Unknown
12:00 PM 76 °F 70 °F 76% 29.93 in - SE 9.2 mph - -  
12:00 PM 77.0 °F 69.8 °F 78% 29.92 in - SE 9.2 mph - N/A   Unknown
12:30 PM 77.0 °F 69.8 °F 78% 29.92 in - SE 9.2 mph - N/A   Unknown
1:00 PM 75.2 °F 69.8 °F 83% 29.89 in - SE 10.4 mph - N/A   Unknown
1:30 PM 77.0 °F 69.8 °F 78% 29.89 in - SE 9.2 mph - N/A   Unknown
2:00 PM 75.2 °F 69.8 °F 83% 29.89 in - SE 8.1 mph - N/A   Unknown
2:30 PM 75.2 °F 69.8 °F 83% 29.86 in - ESE 6.9 mph - N/A   Unknown
3:00 PM 74 °F 69 °F 78% 29.87 in - ESE 8.1 mph - -  
3:00 PM 75.2 °F 68.0 °F 78% 29.86 in - ESE 8.1 mph - N/A   Unknown
3:30 PM 75.2 °F 69.8 °F 83% 29.86 in - ESE 8.1 mph - N/A   Unknown
4:00 PM 75.2 °F 69.8 °F 83% 29.86 in - East 9.2 mph - N/A   Unknown
4:30 PM 75.2 °F 69.8 °F 83% 29.86 in - East 9.2 mph - N/A   Unknown
5:00 PM 73.4 °F 69.8 °F 88% 29.86 in - East 5.8 mph - N/A   Unknown
5:30 PM 73.4 °F 69.8 °F 88% 29.86 in - ENE 5.8 mph - N/A   Unknown
6:00 PM 73 °F 69 °F 84% 29.88 in - East 6.9 mph - -  
6:00 PM 73.4 °F 69.8 °F 88% 29.89 in - East 6.9 mph - N/A   Unknown
6:30 PM 73.4 °F 69.8 °F 88% 29.89 in - East 5.8 mph - N/A   Unknown
7:00 PM 73.4 °F 69.8 °F 88% 29.92 in - NNE 4.6 mph - N/A   Unknown
7:30 PM 73.4 °F 69.8 °F 88% 29.92 in - Calm Calm - N/A   Unknown
8:00 PM 73.4 °F 69.8 °F 88% 29.92 in - ENE 6.9 mph - N/A   Unknown
8:30 PM 73.4 °F 69.8 °F 88% 29.92 in - ENE 5.8 mph - N/A   Unknown
9:00 PM 73 °F 69 °F 84% 29.94 in - NE 3.5 mph - -  
9:00 PM 73.4 °F 69.8 °F 88% 29.95 in - NE 3.5 mph - N/A   Unknown
9:30 PM 73.4 °F 69.8 °F 88% 29.95 in - Calm Calm - N/A   Unknown
10:00 PM 73.4 °F 69.8 °F 88% 29.95 in - East 5.8 mph - N/A   Unknown
10:30 PM 73.4 °F 69.8 °F 88% 29.95 in - Calm Calm - N/A   Unknown
11:00 PM 73.4 °F 69.8 °F 88% 29.95 in - East 3.5 mph - N/A   Unknown
11:30 PM 71.6 °F 69.8 °F 94% 29.92 in - ENE 8.1 mph - N/A   Unknown